DLH114 EGPH-EDDF

Flight info

Callsign DLH114
Flight time N/A
Altitude 37000
Route TLA6C TLA Y96 HAVEN DCT OTBUN DCT AGPED DCT GODOS DCT AMGOD DCT SOGPO DCT DIXAT DIXAT1D
Aircraft A320/M-SDE3FGHIRWY/LB1

Departure

Time 2026-04-26 12:08
Airport Edinburgh Airport (EGPH)

Arrival

Time N/A
Airport Frankfurt Main Airport (EDDF)
Time Latitude Longitude Altitude Speed Heading
2026-04-26 11:08 55.94919 -3.36428 116 ft 0 kts 148°
2026-04-26 11:57 55.94935 -3.36447 116 ft 4 kts 147°
2026-04-26 11:57 55.94954 -3.36467 116 ft 4 kts 143°
2026-04-26 11:57 55.94969 -3.36500 116 ft 4 kts 97°
2026-04-26 11:58 55.94965 -3.36540 116 ft 3 kts 59°
2026-04-26 11:58 55.94953 -3.36575 116 ft 1 kts 59°
2026-04-26 12:03 55.94953 -3.36573 116 ft 2 kts 59°
2026-04-26 12:03 55.94979 -3.36499 116 ft 12 kts 59°
2026-04-26 12:03 55.95023 -3.36391 116 ft 7 kts 27°
2026-04-26 12:03 55.95066 -3.36400 116 ft 6 kts 348°
2026-04-26 12:04 55.95097 -3.36382 116 ft 4 kts 35°
2026-04-26 12:04 55.95114 -3.36347 116 ft 3 kts 58°
2026-04-26 12:04 55.95135 -3.36279 116 ft 13 kts 61°
2026-04-26 12:04 55.95203 -3.36076 116 ft 22 kts 59°
2026-04-26 12:05 55.95285 -3.35837 116 ft 22 kts 59°
2026-04-26 12:05 55.95358 -3.35615 116 ft 16 kts 59°
2026-04-26 12:05 55.95399 -3.35495 116 ft 10 kts 59°
2026-04-26 12:05 55.95437 -3.35413 116 ft 8 kts 14°
2026-04-26 12:06 55.95485 -3.35426 116 ft 7 kts 335°
2026-04-26 12:06 55.95526 -3.35467 115 ft 7 kts 330°
2026-04-26 12:06 55.95570 -3.35511 113 ft 3 kts 330°
2026-04-26 12:06 55.95577 -3.35529 113 ft 2 kts 291°
2026-04-26 12:07 55.95571 -3.35564 113 ft 4 kts 240°
2026-04-26 12:07 55.95571 -3.35565 113 ft 0 kts 240°
2026-04-26 12:07 55.95566 -3.35580 113 ft 8 kts 240°
2026-04-26 12:08 55.95414 -3.36028 111 ft 81 kts 238°
2026-04-26 12:08 55.95011 -3.37216 112 ft 140 kts 239°
2026-04-26 12:08 55.94422 -3.38941 369 ft 167 kts 238°
2026-04-26 12:08 55.93817 -3.40682 1140 ft 167 kts 238°
2026-04-26 12:09 55.93164 -3.42534 1529 ft 188 kts 237°
2026-04-26 12:09 55.92423 -3.44636 1851 ft 213 kts 237°
2026-04-26 12:09 55.91583 -3.47011 2293 ft 238 kts 238°
2026-04-26 12:09 55.90660 -3.49630 2863 ft 259 kts 238°
2026-04-26 12:10 55.89695 -3.52374 3762 ft 265 kts 234°
2026-04-26 12:10 55.88393 -3.54759 4641 ft 271 kts 214°
2026-04-26 12:10 55.86709 -3.56075 5409 ft 275 kts 190°
2026-04-26 12:10 55.84765 -3.55899 5657 ft 278 kts 166°
2026-04-26 12:11 55.82950 -3.54752 5713 ft 277 kts 157°
2026-04-26 12:11 55.81195 -3.53322 5718 ft 277 kts 155°
2026-04-26 12:11 55.79440 -3.51909 5718 ft 277 kts 157°
2026-04-26 12:11 55.77666 -3.50626 5719 ft 277 kts 159°
2026-04-26 12:12 55.75845 -3.49451 5836 ft 280 kts 161°
2026-04-26 12:12 55.73969 -3.48343 6457 ft 284 kts 162°
2026-04-26 12:12 55.72082 -3.47284 7436 ft 284 kts 163°
2026-04-26 12:12 55.70828 -3.46596 7998 ft 286 kts 163°
2026-04-26 12:13 55.68283 -3.45217 9041 ft 292 kts 163°
2026-04-26 12:13 55.66329 -3.44162 9782 ft 295 kts 163°
2026-04-26 12:13 55.64338 -3.43082 10325 ft 308 kts 163°
2026-04-26 12:13 55.62212 -3.41930 10499 ft 331 kts 163°
2026-04-26 12:14 55.59950 -3.40705 10813 ft 346 kts 163°
2026-04-26 12:14 55.59378 -3.40396 10943 ft 348 kts 163°
2026-04-26 12:14 55.57630 -3.39453 11381 ft 352 kts 163°
2026-04-26 12:14 55.55271 -3.38174 11980 ft 356 kts 162°
2026-04-26 12:15 55.53011 -3.36353 12536 ft 361 kts 148°
2026-04-26 12:15 55.51087 -3.33492 13078 ft 365 kts 131°
2026-04-26 12:15 55.49668 -3.29782 13594 ft 369 kts 116°
2026-04-26 12:15 55.48867 -3.25473 14087 ft 373 kts 101°
2026-04-26 12:16 55.48396 -3.20956 14572 ft 376 kts 101°
2026-04-26 12:16 55.47921 -3.16407 15045 ft 379 kts 101°
2026-04-26 12:16 55.47433 -3.11836 15499 ft 382 kts 101°
2026-04-26 12:16 55.46933 -3.07219 15935 ft 385 kts 101°
2026-04-26 12:17 55.46416 -3.02578 16350 ft 387 kts 104°
2026-04-26 12:17 55.45752 -2.98896 16667 ft 389 kts 112°
2026-04-26 12:17 55.45534 -2.97998 16745 ft 390 kts 115°
2026-04-26 12:18 55.44253 -2.93766 17121 ft 392 kts 120°
2026-04-26 12:18 55.42914 -2.89568 17489 ft 395 kts 120°
2026-04-26 12:18 55.42026 -2.86781 17722 ft 396 kts 120°
2026-04-26 12:18 55.40214 -2.81099 18176 ft 399 kts 120°
2026-04-26 12:19 55.39314 -2.78281 18390 ft 401 kts 120°
2026-04-26 12:19 55.37479 -2.72536 18807 ft 404 kts 120°
2026-04-26 12:19 55.36566 -2.69686 19003 ft 405 kts 120°
2026-04-26 12:19 55.35175 -2.65352 19291 ft 407 kts 120°
2026-04-26 12:20 55.33777 -2.61013 19565 ft 409 kts 120°
2026-04-26 12:20 55.32375 -2.56671 19781 ft 408 kts 120°
2026-04-26 12:20 55.30966 -2.52313 19973 ft 412 kts 120°
2026-04-26 12:20 55.29548 -2.47941 20175 ft 413 kts 120°
2026-04-26 12:21 55.28126 -2.43564 20395 ft 415 kts 120°
2026-04-26 12:21 55.26691 -2.39143 20612 ft 417 kts 120°
2026-04-26 12:21 55.25258 -2.34729 20821 ft 419 kts 120°
2026-04-26 12:21 55.23806 -2.30264 21022 ft 420 kts 120°
2026-04-26 12:22 55.22356 -2.25819 21215 ft 422 kts 120°
2026-04-26 12:22 55.20895 -2.21352 21402 ft 423 kts 120°
2026-04-26 12:22 55.19429 -2.16876 21583 ft 424 kts 120°
2026-04-26 12:22 55.17957 -2.12390 21759 ft 426 kts 120°
2026-04-26 12:23 55.16480 -2.07899 21928 ft 427 kts 120°
2026-04-26 12:23 55.14993 -2.03393 22087 ft 428 kts 120°
2026-04-26 12:23 55.13501 -1.98884 22239 ft 429 kts 120°
2026-04-26 12:23 55.12004 -1.94362 22385 ft 430 kts 120°
2026-04-26 12:24 55.10534 -1.89803 22525 ft 432 kts 119°
2026-04-26 12:24 55.09090 -1.85202 22660 ft 433 kts 118°
2026-04-26 12:24 55.07663 -1.80577 22791 ft 434 kts 118°
2026-04-26 12:25 55.04805 -1.71292 23043 ft 436 kts 118°
2026-04-26 12:25 55.03355 -1.66642 23168 ft 436 kts 119°
2026-04-26 12:25 55.01893 -1.61999 23293 ft 437 kts 119°
2026-04-26 12:25 55.00427 -1.57367 23418 ft 438 kts 119°
2026-04-26 12:26 54.98948 -1.52718 23543 ft 438 kts 119°
2026-04-26 12:26 54.97474 -1.48085 23668 ft 439 kts 119°
2026-04-26 12:26 54.95994 -1.43437 23793 ft 439 kts 119°
2026-04-26 12:26 54.94511 -1.38784 23918 ft 439 kts 119°
2026-04-26 12:27 54.93049 -1.34198 24040 ft 440 kts 119°
2026-04-26 12:27 54.91564 -1.29551 24165 ft 440 kts 119°
2026-04-26 12:27 54.90079 -1.24903 24290 ft 440 kts 119°
2026-04-26 12:27 54.88591 -1.20244 24415 ft 440 kts 119°
2026-04-26 12:28 54.87105 -1.15600 24540 ft 440 kts 119°
2026-04-26 12:28 54.85613 -1.10961 24665 ft 440 kts 120°
2026-04-26 12:28 54.84119 -1.06326 24790 ft 440 kts 120°
2026-04-26 12:28 54.82623 -1.01700 24915 ft 440 kts 120°
2026-04-26 12:29 54.81123 -0.97077 25040 ft 439 kts 120°
2026-04-26 12:29 54.79625 -0.92468 25164 ft 439 kts 120°
2026-04-26 12:29 54.76627 -0.83268 25414 ft 438 kts 120°
2026-04-26 12:30 54.74125 -0.75601 25621 ft 437 kts 120°
2026-04-26 12:30 54.72448 -0.70478 25761 ft 436 kts 120°
2026-04-26 12:30 54.70952 -0.65913 25886 ft 435 kts 120°
2026-04-26 12:31 54.67963 -0.56813 26136 ft 434 kts 120°
2026-04-26 12:31 54.66454 -0.52249 26262 ft 433 kts 120°
2026-04-26 12:31 54.64976 -0.47781 26386 ft 433 kts 120°
2026-04-26 12:31 54.63482 -0.43268 26511 ft 432 kts 120°
2026-04-26 12:32 54.61995 -0.38786 26635 ft 432 kts 120°
2026-04-26 12:32 54.60500 -0.34288 26760 ft 431 kts 120°
2026-04-26 12:32 54.57521 -0.25334 27010 ft 430 kts 120°
2026-04-26 12:33 54.56034 -0.20881 27135 ft 429 kts 120°
2026-04-26 12:33 54.54543 -0.16432 27260 ft 428 kts 120°
2026-04-26 12:33 54.53054 -0.11997 27384 ft 428 kts 120°
2026-04-26 12:33 54.51561 -0.07554 27510 ft 427 kts 120°
2026-04-26 12:34 54.50073 -0.03136 27635 ft 427 kts 120°
2026-04-26 12:34 54.48587 0.01271 27760 ft 426 kts 120°
2026-04-26 12:34 54.47099 0.05678 27885 ft 425 kts 120°
2026-04-26 12:34 54.45614 0.10068 28010 ft 425 kts 120°
2026-04-26 12:35 54.44127 0.14455 28135 ft 424 kts 121°
2026-04-26 12:35 54.42644 0.18820 28260 ft 424 kts 121°
2026-04-26 12:35 54.41154 0.23200 28385 ft 423 kts 121°
2026-04-26 12:35 54.39671 0.27557 28510 ft 423 kts 121°
2026-04-26 12:36 54.38183 0.31914 28635 ft 422 kts 121°
2026-04-26 12:36 54.36699 0.36250 28760 ft 422 kts 121°
2026-04-26 12:36 54.35211 0.40587 28885 ft 421 kts 121°
2026-04-26 12:36 54.33726 0.44910 29010 ft 421 kts 121°
2026-04-26 12:37 54.32242 0.49230 29135 ft 420 kts 121°
2026-04-26 12:37 54.30757 0.53539 29260 ft 420 kts 121°
2026-04-26 12:37 54.29271 0.57843 29384 ft 419 kts 121°
2026-04-26 12:37 54.27785 0.62145 29510 ft 419 kts 121°
2026-04-26 12:38 54.26304 0.66427 29634 ft 418 kts 121°
2026-04-26 12:38 54.24823 0.70699 29759 ft 418 kts 121°
2026-04-26 12:38 54.23339 0.74964 29884 ft 417 kts 121°
2026-04-26 12:38 54.21851 0.79228 30009 ft 417 kts 121°
2026-04-26 12:39 54.20370 0.83471 30134 ft 416 kts 121°
2026-04-26 12:39 54.18884 0.87721 30259 ft 415 kts 121°
2026-04-26 12:39 54.17405 0.91951 30384 ft 415 kts 121°
2026-04-26 12:40 54.14433 1.00436 30414 ft 420 kts 121°
2026-04-26 12:40 54.11408 1.09034 30415 ft 424 kts 121°
2026-04-26 12:41 54.09907 1.13294 30415 ft 427 kts 121°
2026-04-26 12:41 54.06814 1.22040 30416 ft 431 kts 121°
2026-04-26 12:42 54.03697 1.30795 30417 ft 435 kts 121°
2026-04-26 12:42 54.00569 1.39566 30417 ft 438 kts 121°
2026-04-26 12:43 53.97382 1.48490 30418 ft 441 kts 122°
2026-04-26 12:43 53.94187 1.57390 30425 ft 447 kts 122°
2026-04-26 12:44 53.90961 1.66372 30626 ft 443 kts 122°
2026-04-26 12:44 53.89356 1.70817 30750 ft 442 kts 122°
2026-04-26 12:44 53.87751 1.75247 30874 ft 440 kts 122°
2026-04-26 12:44 53.86154 1.79643 30998 ft 438 kts 122°
2026-04-26 12:45 53.84545 1.84062 31123 ft 436 kts 122°
2026-04-26 12:45 53.82956 1.88420 31248 ft 434 kts 122°
2026-04-26 12:45 53.81374 1.92765 31372 ft 433 kts 122°
2026-04-26 12:45 53.79799 1.97088 31496 ft 431 kts 122°
2026-04-26 12:46 53.78228 2.01395 31620 ft 429 kts 122°
2026-04-26 12:46 53.76663 2.05675 31744 ft 428 kts 122°
2026-04-26 12:46 53.75096 2.09942 31869 ft 426 kts 122°
2026-04-26 12:46 53.73533 2.14181 31993 ft 425 kts 122°
2026-04-26 12:47 53.71976 2.18395 32118 ft 423 kts 122°
2026-04-26 12:47 53.70420 2.22601 32243 ft 422 kts 122°
2026-04-26 12:47 53.68871 2.26790 32367 ft 420 kts 122°
2026-04-26 12:47 53.67321 2.30976 32492 ft 419 kts 122°
2026-04-26 12:48 53.65799 2.35082 32616 ft 418 kts 122°
2026-04-26 12:48 53.64245 2.39277 32742 ft 416 kts 122°
2026-04-26 12:48 53.62713 2.43402 32867 ft 415 kts 122°
2026-04-26 12:48 53.61201 2.47455 32990 ft 413 kts 122°
2026-04-26 12:49 53.59658 2.51595 33116 ft 412 kts 122°
2026-04-26 12:49 53.58128 2.55689 33241 ft 410 kts 122°
2026-04-26 12:49 53.56637 2.59669 33364 ft 409 kts 122°
2026-04-26 12:49 53.55119 2.63713 33489 ft 407 kts 122°
2026-04-26 12:50 53.53610 2.67727 33613 ft 406 kts 122°
2026-04-26 12:50 53.52103 2.71727 33738 ft 405 kts 123°
2026-04-26 12:50 53.50599 2.75714 33863 ft 403 kts 123°
2026-04-26 12:50 53.49101 2.79691 33988 ft 402 kts 123°
2026-04-26 12:51 53.47606 2.83648 34112 ft 401 kts 123°
2026-04-26 12:51 53.46114 2.87588 34237 ft 399 kts 123°
2026-04-26 12:51 53.44674 2.91385 34358 ft 398 kts 123°
2026-04-26 12:51 53.43244 2.95153 34479 ft 398 kts 123°
2026-04-26 12:52 53.42086 2.98194 34575 ft 400 kts 123°
2026-04-26 12:53 53.40646 3.01972 34696 ft 401 kts 122°
2026-04-26 12:53 53.38541 3.07491 34875 ft 407 kts 123°
2026-04-26 12:53 53.37007 3.11507 35006 ft 412 kts 123°
2026-04-26 12:54 53.35453 3.15582 35124 ft 417 kts 123°
2026-04-26 12:54 53.33882 3.19687 35267 ft 421 kts 123°
2026-04-26 12:54 53.32286 3.23838 35380 ft 426 kts 123°
2026-04-26 12:54 53.30676 3.28018 35502 ft 430 kts 123°
2026-04-26 12:55 53.29044 3.32252 35638 ft 434 kts 123°
2026-04-26 12:55 53.27397 3.36505 35757 ft 438 kts 124°
2026-04-26 12:55 53.25514 3.40523 35882 ft 441 kts 133°
2026-04-26 12:55 53.23269 3.44022 36009 ft 443 kts 142°
2026-04-26 12:56 53.20717 3.46911 36123 ft 446 kts 151°
2026-04-26 12:56 53.18189 3.49271 36278 ft 448 kts 151°
2026-04-26 12:56 53.15467 3.51812 36483 ft 448 kts 151°
2026-04-26 12:56 53.12933 3.54185 36649 ft 446 kts 151°
2026-04-26 12:57 53.12418 3.54668 36675 ft 445 kts 151°
2026-04-26 12:58 53.07057 3.59684 36956 ft 439 kts 151°
2026-04-26 12:58 53.04403 3.62154 37008 ft 437 kts 151°
2026-04-26 12:58 53.00403 3.66010 37009 ft 436 kts 145°
2026-04-26 12:59 52.99470 3.67130 37010 ft 436 kts 142°
2026-04-26 12:59 52.97015 3.70876 37009 ft 439 kts 132°
2026-04-26 13:00 52.93546 3.79166 37009 ft 438 kts 122°
2026-04-26 13:00 52.90339 3.87740 37009 ft 437 kts 122°